Tracking 29892 objects as of 21-Nov-2024
HD Live streaming from Space Station
objects crossing your sky now

NOAA 16 DEB

Track NOAA 16 DEB now!
10-day predictions


NORAD ID: 41131
Int'l Code: 2000-055BN
Perigee: 840.9 km
Apogee: 921.8 km
Inclination: 98.8 °
Period: 102.4 minutes
Semi major axis: 7252 km
RCS: Unknown
Launch date: September 21, 2000
Source: United States (US)
Launch site: AIR FORCE WESTERN TEST RANGE (AFWTR)

Note: This is SATELLITE DEBRIS
Your satellite tracking list
Your tracking list is empty




NASA's NSSDC Master Catalog

Two Line Element Set (TLE):
1 41131U 00055BN  24325.48622103  .00003950  00000-0  24150-2 0  9993
2 41131  98.7830 331.7971 0055804 192.3313 167.6493 14.05670291457403
Source of the keplerian elements: AFSPC